Time,TemperatureF,DewpointF,PressureIn,WindDirection,WindDirectionDegrees,WindSpeedMPH,WindSpeedGustMPH,Humidity,HourlyPrecipIn,Conditions,Clouds,dailyrainin,SolarRadiationWatts/m^2,SoftwareType,DateUTC
2013-11-28 00:00:00,64.6,57.9,29.93,ESE,104,0.0,4.0,79,0.00,SCT,SCT,0.00,0.0,WeatherDisplay:10.37,2013-11-28 10:00:00,
2013-11-28 00:10:00,64.0,57.7,29.93,ESE,104,1.0,3.0,80,0.00,CLR,SCT,0.00,0.0,WeatherDisplay:10.37,2013-11-28 10:10:00,
2013-11-28 00:20:00,63.8,58.2,29.94,ESE,104,2.0,2.0,82,0.00,CLR,SCT,0.00,0.0,WeatherDisplay:10.37,2013-11-28 10:20:00,
2013-11-28 00:30:00,63.9,58.3,29.94,ESE,104,2.0,5.0,82,0.00,CLR,SCT,0.00,0.0,WeatherDisplay:10.37,2013-11-28 10:30:00,
2013-11-28 00:40:00,64.0,58.4,29.93,ESE,103,5.0,6.0,82,0.00,CLR,SCT,0.00,0.0,WeatherDisplay:10.37,2013-11-28 10:40:00,
2013-11-28 00:50:00,64.5,58.6,29.94,East,98,2.0,6.0,81,0.00,CLR,SCT,0.00,0.0,WeatherDisplay:10.37,2013-11-28 10:50:00,
2013-11-28 01:00:00,65.4,60.1,29.94,SE,128,6.0,10.0,83,0.00,CLR,SCT,0.00,0.0,WeatherDisplay:10.37,2013-11-28 11:00:00,
2013-11-28 01:10:00,67.3,61.6,29.93,SSE,153,6.0,9.0,82,0.00,CLR,SCT,0.00,0.0,WeatherDisplay:10.37,2013-11-28 11:10:00,
2013-11-28 01:20:00,68.0,61.2,29.93,SSE,160,0.0,5.0,79,0.00,CLR,SCT,0.00,0.0,WeatherDisplay:10.37,2013-11-28 11:20:00,
2013-11-28 01:30:00,68.2,61.4,29.92,SE,124,0.0,4.0,79,0.00,CLR,SCT,0.00,0.0,WeatherDisplay:10.37,2013-11-28 11:30:00,
2013-11-28 01:40:00,68.1,61.0,29.93,ESE,112,1.0,3.0,78,0.00,CLR,SCT,0.00,0.0,WeatherDisplay:10.37,2013-11-28 11:40:00,
2013-11-28 01:50:00,67.9,60.8,29.93,ESE,112,0.0,3.0,78,0.00,CLR,SCT,0.00,0.0,WeatherDisplay:10.37,2013-11-28 11:50:00,
2013-11-28 02:00:00,67.5,60.4,29.92,ESE,112,1.0,3.0,78,0.00,CLR,SCT,0.00,0.0,WeatherDisplay:10.37,2013-11-28 12:00:00,
2013-11-28 02:10:00,66.9,59.8,29.92,ESE,112,2.0,4.0,78,0.00,OVC,SCT,0.00,0.0,WeatherDisplay:10.37,2013-11-28 12:10:00,
2013-11-28 02:20:00,66.4,59.3,29.92,ESE,112,2.0,4.0,78,0.00,OVC,SCT,0.00,0.0,WeatherDisplay:10.37,2013-11-28 12:20:00,
2013-11-28 02:30:00,65.7,58.7,29.92,ESE,112,2.0,12.0,78,0.00,OVC,SCT,0.00,0.0,WeatherDisplay:10.37,2013-11-28 12:30:00,
2013-11-28 02:40:00,65.3,58.6,29.92,ESE,109,1.0,6.0,79,0.00,OVC,SCT,0.00,0.0,WeatherDisplay:10.37,2013-11-28 12:40:00,
2013-11-28 02:50:00,65.4,59.1,29.92,East,101,0.0,6.0,80,0.00,OVC,SCT,0.00,0.0,WeatherDisplay:10.37,2013-11-28 12:50:00,
2013-11-28 03:00:00,65.5,59.5,29.91,East,101,2.0,4.0,81,0.00,OVC,SCT,0.00,0.0,WeatherDisplay:10.37,2013-11-28 13:00:00,
2013-11-28 03:10:00,65.8,60.5,29.91,East,101,0.0,2.0,83,0.00,BKN,SCT,0.00,0.0,WeatherDisplay:10.37,2013-11-28 13:10:00,
2013-11-28 03:20:00,66.1,60.8,29.91,East,101,0.0,3.0,83,0.00,BKN,SCT,0.00,0.0,WeatherDisplay:10.37,2013-11-28 13:20:00,
2013-11-28 03:30:00,66.1,60.1,29.90,East,101,2.0,3.0,81,0.00,BKN,SCT,0.00,0.0,WeatherDisplay:10.37,2013-11-28 13:30:00,
2013-11-28 03:40:00,66.1,60.1,29.90,ESE,102,0.0,4.0,81,0.00,BKN,SCT,0.00,0.0,WeatherDisplay:10.37,2013-11-28 13:40:00,
2013-11-28 03:50:00,66.1,59.7,29.91,ESE,102,0.0,4.0,80,0.00,BKN,SCT,0.00,0.0,WeatherDisplay:10.37,2013-11-28 13:50:00,
2013-11-28 04:00:00,66.3,58.8,29.91,East,88,5.0,8.0,77,0.00,BKN,SCT,0.00,0.0,WeatherDisplay:10.37,2013-11-28 14:00:00,
2013-11-28 04:10:00,66.7,58.5,29.90,East,83,0.0,4.0,75,0.00,OVC,SCT,0.00,0.0,WeatherDisplay:10.37,2013-11-28 14:10:00,
2013-11-28 04:20:00,66.8,59.4,29.90,East,83,0.0,0.0,77,0.00,OVC,SCT,0.00,0.0,WeatherDisplay:10.37,2013-11-28 14:20:00,
2013-11-28 04:30:00,66.6,59.6,29.90,East,83,0.0,1.0,78,0.00,OVC,SCT,0.00,0.0,WeatherDisplay:10.37,2013-11-28 14:30:00,
2013-11-28 04:40:00,66.5,59.8,29.90,East,84,0.0,4.0,79,0.00,OVC,SCT,0.00,0.0,WeatherDisplay:10.37,2013-11-28 14:40:00,
2013-11-28 04:50:00,66.1,59.0,29.90,East,84,1.0,4.0,78,0.00,OVC,SCT,0.00,0.0,WeatherDisplay:10.37,2013-11-28 14:50:00,
2013-11-28 05:00:00,65.2,58.2,29.90,East,84,0.0,4.0,78,0.00,OVC,SCT,0.00,0.0,WeatherDisplay:10.37,2013-11-28 15:00:00,
2013-11-28 05:10:00,64.9,58.2,29.90,East,84,3.0,5.0,79,0.00,OVC,SCT,0.00,0.0,WeatherDisplay:10.37,2013-11-28 15:10:00,
2013-11-28 05:20:00,64.7,58.1,29.90,East,84,1.0,3.0,79,0.00,OVC,SCT,0.00,0.0,WeatherDisplay:10.37,2013-11-28 15:20:00,
2013-11-28 05:30:00,64.5,57.8,29.90,East,86,0.0,6.0,79,0.00,OVC,SCT,0.00,0.0,WeatherDisplay:10.37,2013-11-28 15:30:00,
2013-11-28 05:40:00,64.2,57.5,29.91,East,86,0.0,3.0,79,0.00,OVC,SCT,0.00,0.0,WeatherDisplay:10.37,2013-11-28 15:40:00,
2013-11-28 05:50:00,63.7,57.0,29.91,East,86,3.0,5.0,79,0.00,OVC,SCT,0.00,0.0,WeatherDisplay:10.37,2013-11-28 15:50:00,
2013-11-28 06:00:00,63.2,56.9,29.91,East,86,2.0,3.0,80,0.00,OVC,SCT,0.00,0.0,WeatherDisplay:10.37,2013-11-28 16:00:00,
2013-11-28 06:10:00,62.5,56.6,29.91,East,86,1.0,4.0,81,0.00,CLR,SCT,0.00,0.0,WeatherDisplay:10.37,2013-11-28 16:10:00,
2013-11-28 06:20:00,62.0,56.4,29.91,East,86,0.0,4.0,82,0.00,CLR,SCT,0.00,0.0,WeatherDisplay:10.37,2013-11-28 16:20:00,
2013-11-28 06:30:00,61.5,56.3,29.92,East,86,0.0,3.0,83,0.00,CLR,SCT,0.00,0.0,WeatherDisplay:10.37,2013-11-28 16:30:00,
2013-11-28 06:40:00,61.5,56.3,29.92,East,86,0.0,4.0,83,0.00,CLR,SCT,0.00,0.0,WeatherDisplay:10.37,2013-11-28 16:40:00,
2013-11-28 06:50:00,61.3,56.4,29.92,East,86,2.0,4.0,84,0.00,CLR,SCT,0.00,0.2,WeatherDisplay:10.37,2013-11-28 16:50:00,
2013-11-28 07:00:00,60.9,55.7,29.91,East,86,0.0,3.0,83,0.00,CLR,SCT,0.00,0.7,WeatherDisplay:10.37,2013-11-28 17:00:00,
2013-11-28 07:10:00,60.5,55.6,29.92,East,86,0.0,4.0,84,0.00,FEW,SCT,0.00,1.6,WeatherDisplay:10.37,2013-11-28 17:10:00,
2013-11-28 07:20:00,60.4,56.2,29.92,East,86,1.0,4.0,86,0.00,FEW,SCT,0.00,2.9,WeatherDisplay:10.37,2013-11-28 17:20:00,
2013-11-28 07:30:00,60.8,56.2,29.92,East,86,0.0,3.0,85,0.00,FEW,SCT,0.00,4.7,WeatherDisplay:10.37,2013-11-28 17:30:00,
2013-11-28 07:40:00,61.4,56.8,29.93,East,86,0.0,4.0,85,0.00,FEW,SCT,0.00,6.9,WeatherDisplay:10.37,2013-11-28 17:40:00,
2013-11-28 07:50:00,62.6,58.0,29.93,East,86,0.0,2.0,85,0.00,FEW,SCT,0.00,31.2,WeatherDisplay:10.37,2013-11-28 17:50:00,
2013-11-28 08:00:00,64.7,59.1,29.93,East,86,0.0,1.0,82,0.00,FEW,SCT,0.00,78.0,WeatherDisplay:10.37,2013-11-28 18:00:00,
2013-11-28 08:10:00,67.8,60.3,29.93,East,86,0.0,1.0,77,0.00,CLR,SCT,0.00,98.4,WeatherDisplay:10.37,2013-11-28 18:10:00,
2013-11-28 08:20:00,70.7,62.0,29.93,East,86,0.0,1.0,74,0.00,CLR,SCT,0.00,116.8,WeatherDisplay:10.37,2013-11-28 18:20:00,
2013-11-28 08:30:00,72.9,61.3,29.94,East,86,0.0,1.0,67,0.00,CLR,SCT,0.00,139.1,WeatherDisplay:10.37,2013-11-28 18:30:00,
2013-11-28 08:40:00,74.2,60.8,29.94,East,86,0.0,1.0,63,0.00,CLR,SCT,0.00,167.9,WeatherDisplay:10.37,2013-11-28 18:40:00,
2013-11-28 08:50:00,74.3,62.6,29.94,ESE,119,0.0,5.0,67,0.00,CLR,SCT,0.00,193.6,WeatherDisplay:10.37,2013-11-28 18:50:00,
2013-11-28 09:01:00,74.5,62.8,29.94,South,185,0.0,6.0,67,0.00,CLR,SCT,0.00,223.3,WeatherDisplay:10.37,2013-11-28 19:01:00,
2013-11-28 09:10:00,75.5,62.0,29.94,South,191,0.0,3.0,63,0.00,FEW,SCT,0.00,229.8,WeatherDisplay:10.37,2013-11-28 19:10:00,
2013-11-28 09:20:00,76.2,62.7,29.94,South,191,0.0,2.0,63,0.00,FEW,SCT,0.00,277.5,WeatherDisplay:10.37,2013-11-28 19:20:00,
2013-11-28 09:30:00,76.7,63.2,29.94,South,191,1.0,4.0,63,0.00,FEW,SCT,0.00,298.2,WeatherDisplay:10.37,2013-11-28 19:30:00,
2013-11-28 09:40:00,77.1,63.1,29.95,South,191,1.0,5.0,62,0.00,FEW,SCT,0.00,332.8,WeatherDisplay:10.37,2013-11-28 19:40:00,
2013-11-28 09:50:00,76.9,63.8,29.94,West,266,1.0,7.0,64,0.00,FEW,SCT,0.00,364.3,WeatherDisplay:10.37,2013-11-28 19:50:00,
2013-11-28 10:01:00,77.3,63.7,29.94,SW,232,2.0,6.0,63,0.00,FEW,SCT,0.00,450.8,WeatherDisplay:10.37,2013-11-28 20:01:00,
2013-11-28 10:10:00,76.9,63.8,29.94,West,265,3.0,12.0,64,0.00,FEW,SCT,0.00,475.1,WeatherDisplay:10.37,2013-11-28 20:10:00,
2013-11-28 10:20:00,77.2,64.5,29.94,WSW,250,2.0,9.0,65,0.00,FEW,SCT,0.00,523.4,WeatherDisplay:10.37,2013-11-28 20:20:00,
2013-11-28 10:30:00,77.5,63.9,29.93,WSW,239,3.0,8.0,63,0.00,FEW,SCT,0.00,232.0,WeatherDisplay:10.37,2013-11-28 20:30:00,
2013-11-28 10:40:00,77.2,63.6,29.93,SW,228,2.0,6.0,63,0.00,FEW,SCT,0.00,294.8,WeatherDisplay:10.37,2013-11-28 20:40:00,
2013-11-28 10:50:00,77.0,63.0,29.93,SW,214,0.0,6.0,62,0.00,FEW,SCT,0.00,276.5,WeatherDisplay:10.37,2013-11-28 20:50:00,
2013-11-28 11:01:00,77.3,65.4,29.92,WSW,239,5.0,8.0,67,0.00,FEW,SCT,0.00,1115.4,WeatherDisplay:10.37,2013-11-28 21:01:00,
2013-11-28 11:10:00,78.7,65.0,29.92,WSW,248,6.0,10.0,63,0.00,SCT,SCT,0.00,974.1,WeatherDisplay:10.37,2013-11-28 21:10:00,
2013-11-28 11:20:00,78.7,64.6,29.92,WSW,241,3.0,10.0,62,0.00,SCT,SCT,0.00,771.7,WeatherDisplay:10.37,2013-11-28 21:20:00,
2013-11-28 11:30:00,78.9,65.2,29.91,WSW,243,5.0,7.0,63,0.00,SCT,SCT,0.00,1101.5,WeatherDisplay:10.37,2013-11-28 21:30:00,
2013-11-28 11:40:00,79.4,64.3,29.91,SSW,213,3.0,8.0,60,0.00,SCT,SCT,0.00,1122.4,WeatherDisplay:10.37,2013-11-28 21:40:00,
2013-11-28 11:50:00,79.7,64.1,29.90,SW,232,2.0,8.0,59,0.00,SCT,SCT,0.00,1292.6,WeatherDisplay:10.37,2013-11-28 21:50:00,
2013-11-28 12:01:00,80.1,64.0,29.90,SW,229,0.0,6.0,58,0.00,SCT,SCT,0.00,1331.9,WeatherDisplay:10.37,2013-11-28 22:01:00,
2013-11-28 12:10:00,80.4,64.7,29.90,WSW,238,6.0,12.0,59,0.00,SCT,SCT,0.00,1426.1,WeatherDisplay:10.37,2013-11-28 22:10:00,
2013-11-28 12:20:00,80.2,64.1,29.89,WSW,251,0.0,12.0,58,0.00,SCT,SCT,0.00,1446.2,WeatherDisplay:10.37,2013-11-28 22:20:00,
2013-11-28 12:30:00,80.7,64.1,29.89,WSW,239,2.0,12.0,57,0.00,SCT,SCT,0.00,1460.9,WeatherDisplay:10.37,2013-11-28 22:30:00,
2013-11-28 12:40:00,81.0,65.3,29.88,SW,232,3.0,10.0,59,0.00,SCT,SCT,0.00,1329.2,WeatherDisplay:10.37,2013-11-28 22:40:00,
2013-11-28 12:50:00,81.5,65.3,29.87,WSW,237,6.0,8.0,58,0.00,SCT,SCT,0.00,1343.4,WeatherDisplay:10.37,2013-11-28 22:50:00,
2013-11-28 13:01:00,81.4,65.2,29.86,WSW,247,3.0,8.0,58,0.00,SCT,SCT,0.00,1279.6,WeatherDisplay:10.37,2013-11-28 23:01:00,
2013-11-28 13:10:00,81.9,65.2,29.85,WSW,243,3.0,6.0,57,0.00,SCT,SCT,0.00,244.2,WeatherDisplay:10.37,2013-11-28 23:10:00,
2013-11-28 13:20:00,81.7,65.5,29.85,West,267,0.0,8.0,58,0.00,SCT,SCT,0.00,1307.1,WeatherDisplay:10.37,2013-11-28 23:20:00,
2013-11-28 13:30:00,81.3,63.6,29.84,West,262,6.0,9.0,55,0.00,SCT,SCT,0.00,392.6,WeatherDisplay:10.37,2013-11-28 23:30:00,
2013-11-28 13:40:00,79.9,64.3,29.84,West,273,5.0,7.0,59,0.00,SCT,SCT,0.00,263.1,WeatherDisplay:10.37,2013-11-28 23:40:00,
2013-11-28 13:50:00,78.9,64.7,29.84,WNW,282,2.0,10.0,62,0.00,SCT,SCT,0.00,241.3,WeatherDisplay:10.37,2013-11-28 23:50:00,
2013-11-28 14:01:00,78.2,65.0,29.84,West,264,2.0,10.0,64,0.00,SCT,SCT,0.00,200.9,WeatherDisplay:10.37,2013-11-29 00:01:00,
2013-11-28 14:10:00,77.5,65.7,29.83,West,259,1.0,7.0,67,0.00,SCT,SCT,0.00,168.5,WeatherDisplay:10.37,2013-11-29 00:10:00,
2013-11-28 14:20:00,77.2,66.7,29.83,NE,40,2.0,12.0,70,0.00,SCT,SCT,0.00,129.7,WeatherDisplay:10.37,2013-11-29 00:20:00,
2013-11-28 14:30:00,76.5,66.4,29.84,ENE,60,2.0,10.0,71,0.00,SCT,SCT,0.00,132.2,WeatherDisplay:10.37,2013-11-29 00:30:00,
2013-11-28 14:40:00,75.7,66.8,29.83,ENE,58,3.0,10.0,74,0.00,SCT,SCT,0.00,136.1,WeatherDisplay:10.37,2013-11-29 00:40:00,
2013-11-28 14:50:00,75.4,66.9,29.83,ENE,63,5.0,10.0,75,0.00,SCT,SCT,0.00,131.8,WeatherDisplay:10.37,2013-11-29 00:50:00,
2013-11-28 15:01:00,75.2,67.1,29.83,ENE,70,5.0,10.0,76,0.00,SCT,SCT,0.00,159.0,WeatherDisplay:10.37,2013-11-29 01:01:00,
2013-11-28 15:10:00,74.8,66.4,29.83,ENE,73,3.0,9.0,75,0.00,SCT,SCT,0.00,90.0,WeatherDisplay:10.37,2013-11-29 01:10:00,
2013-11-28 15:20:00,74.4,66.3,29.83,ENE,75,2.0,8.0,76,0.00,SCT,SCT,0.00,110.6,WeatherDisplay:10.37,2013-11-29 01:20:00,
2013-11-28 15:30:00,74.6,66.9,29.83,East,80,3.0,8.0,77,0.00,SCT,SCT,0.00,144.0,WeatherDisplay:10.37,2013-11-29 01:30:00,
2013-11-28 15:40:00,74.8,67.1,29.83,East,79,5.0,8.0,77,0.00,SCT,SCT,0.00,61.8,WeatherDisplay:10.37,2013-11-29 01:40:00,
2013-11-28 15:50:00,74.3,67.0,29.84,ENE,66,1.0,7.0,78,0.00,SCT,SCT,0.00,54.1,WeatherDisplay:10.37,2013-11-29 01:50:00,
2013-11-28 16:01:00,73.9,67.0,29.84,ENE,70,2.0,10.0,79,0.00,SCT,SCT,0.00,46.2,WeatherDisplay:10.37,2013-11-29 02:01:00,
2013-11-28 16:10:00,73.5,66.6,29.84,ENE,70,3.0,6.0,79,0.00,SCT,SCT,0.00,35.6,WeatherDisplay:10.37,2013-11-29 02:10:00,
2013-11-28 16:20:00,73.3,66.7,29.84,East,80,3.0,7.0,80,0.00,SCT,SCT,0.00,35.5,WeatherDisplay:10.37,2013-11-29 02:20:00,
2013-11-28 16:31:00,73.4,66.8,29.85,East,79,2.0,8.0,80,0.00,SCT,SCT,0.00,97.0,WeatherDisplay:10.37,2013-11-29 02:31:00,
2013-11-28 16:40:00,74.5,67.1,29.85,ENE,75,1.0,7.0,78,0.00,SCT,SCT,0.00,77.0,WeatherDisplay:10.37,2013-11-29 02:40:00,
2013-11-28 16:50:00,74.6,66.9,29.85,East,84,2.0,8.0,77,0.00,SCT,SCT,0.00,42.7,WeatherDisplay:10.37,2013-11-29 02:50:00,
2013-11-28 17:01:00,74.1,66.4,29.86,ENE,75,2.0,7.0,77,0.00,SCT,SCT,0.00,11.1,WeatherDisplay:10.37,2013-11-29 03:01:00,
2013-11-28 17:10:00,73.5,65.8,29.86,East,95,3.0,12.0,77,0.00,SCT,SCT,0.00,10.7,WeatherDisplay:10.37,2013-11-29 03:10:00,
2013-11-28 17:20:00,73.0,65.4,29.86,East,94,2.0,7.0,77,0.00,SCT,SCT,0.00,8.6,WeatherDisplay:10.37,2013-11-29 03:20:00,
2013-11-28 17:30:00,72.6,65.0,29.86,East,94,3.0,6.0,77,0.00,SCT,SCT,0.00,1.3,WeatherDisplay:10.37,2013-11-29 03:30:00,
2013-11-28 17:40:00,72.1,64.9,29.87,East,97,0.0,7.0,78,0.00,SCT,SCT,0.00,0.1,WeatherDisplay:10.37,2013-11-29 03:40:00,
2013-11-28 17:50:00,71.5,63.9,29.87,East,95,7.0,8.0,77,0.00,SCT,SCT,0.00,0.0,WeatherDisplay:10.37,2013-11-29 03:50:00,
2013-11-28 18:01:00,70.6,63.8,29.87,East,94,3.0,10.0,79,0.00,SCT,SCT,0.00,0.0,WeatherDisplay:10.37,2013-11-29 04:01:00,
2013-11-28 18:10:00,70.0,63.5,29.87,ESE,102,3.0,7.0,80,0.00,SCT,SCT,0.00,0.0,WeatherDisplay:10.37,2013-11-29 04:10:00,
2013-11-28 18:20:00,69.6,63.2,29.88,ESE,104,5.0,8.0,80,0.00,SCT,SCT,0.00,0.0,WeatherDisplay:10.37,2013-11-29 04:20:00,
2013-11-28 18:30:00,69.7,62.9,29.88,East,93,3.0,8.0,79,0.00,SCT,SCT,0.00,0.0,WeatherDisplay:10.37,2013-11-29 04:30:00,
2013-11-28 18:40:00,69.8,63.0,29.89,East,97,0.0,5.0,79,0.00,SCT,SCT,0.00,0.0,WeatherDisplay:10.37,2013-11-29 04:40:00,
2013-11-28 18:50:00,69.7,62.9,29.89,East,97,1.0,4.0,79,0.00,SCT,SCT,0.00,0.0,WeatherDisplay:10.37,2013-11-29 04:50:00,
2013-11-28 19:00:00,69.5,62.7,29.90,East,97,2.0,4.0,79,0.00,SCT,SCT,0.00,0.0,WeatherDisplay:10.37,2013-11-29 05:00:00,
2013-11-28 19:10:00,69.2,62.1,29.90,East,96,2.0,6.0,78,0.00,FEW,SCT,0.00,0.0,WeatherDisplay:10.37,2013-11-29 05:10:00,
2013-11-28 19:20:00,68.9,61.4,29.90,East,92,1.0,6.0,77,0.00,FEW,SCT,0.00,0.0,WeatherDisplay:10.37,2013-11-29 05:20:00,
2013-11-28 19:30:00,68.5,61.0,29.91,East,92,1.0,5.0,77,0.00,FEW,SCT,0.00,0.0,WeatherDisplay:10.37,2013-11-29 05:30:00,
2013-11-28 19:40:00,68.1,61.0,29.92,East,93,2.0,5.0,78,0.00,FEW,SCT,0.00,0.0,WeatherDisplay:10.37,2013-11-29 05:40:00,
2013-11-28 19:50:00,68.0,60.5,29.92,East,92,5.0,8.0,77,0.00,FEW,SCT,0.00,0.0,WeatherDisplay:10.37,2013-11-29 05:50:00,
2013-11-28 20:00:00,68.4,60.5,29.92,ESE,113,2.0,8.0,76,0.00,FEW,SCT,0.00,0.0,WeatherDisplay:10.37,2013-11-29 06:00:00,
2013-11-28 20:10:00,68.6,60.7,29.92,ESE,104,0.0,5.0,76,0.00,SCT,SCT,0.00,0.0,WeatherDisplay:10.37,2013-11-29 06:10:00,
2013-11-28 20:20:00,68.4,60.9,29.92,ESE,104,0.0,4.0,77,0.00,SCT,SCT,0.00,0.0,WeatherDisplay:10.37,2013-11-29 06:20:00,
2013-11-28 20:30:00,68.0,59.8,29.93,ESE,122,2.0,7.0,75,0.00,SCT,SCT,0.00,0.0,WeatherDisplay:10.37,2013-11-29 06:30:00,
2013-11-28 20:40:00,68.0,59.8,29.93,ESE,119,3.0,7.0,75,0.00,SCT,SCT,0.00,0.0,WeatherDisplay:10.37,2013-11-29 06:40:00,
2013-11-28 20:50:00,68.1,59.9,29.93,ESE,107,0.0,6.0,75,0.00,SCT,SCT,0.00,0.0,WeatherDisplay:10.37,2013-11-29 06:50:00,
2013-11-28 21:00:00,68.1,60.2,29.93,ESE,106,5.0,8.0,76,0.00,SCT,SCT,0.00,0.0,WeatherDisplay:10.37,2013-11-29 07:00:00,
2013-11-28 21:10:00,67.7,59.5,29.93,ESE,106,3.0,9.0,75,0.00,FEW,SCT,0.00,0.0,WeatherDisplay:10.37,2013-11-29 07:10:00,
2013-11-28 21:20:00,67.5,58.5,29.93,East,91,0.0,8.0,73,0.00,FEW,SCT,0.00,0.0,WeatherDisplay:10.37,2013-11-29 07:20:00,
2013-11-28 21:30:00,67.4,59.9,29.94,ENE,65,5.0,12.0,77,0.00,FEW,SCT,0.00,0.0,WeatherDisplay:10.37,2013-11-29 07:30:00,
2013-11-28 21:40:00,67.4,59.6,29.93,ESE,110,2.0,13.0,76,0.00,FEW,SCT,0.00,0.0,WeatherDisplay:10.37,2013-11-29 07:40:00,
2013-11-28 21:50:00,67.3,59.8,29.94,ESE,104,5.0,10.0,77,0.00,FEW,SCT,0.00,0.0,WeatherDisplay:10.37,2013-11-29 07:50:00,
2013-11-28 22:00:00,67.8,60.0,29.93,ESE,109,2.0,7.0,76,0.00,FEW,SCT,0.00,0.0,WeatherDisplay:10.37,2013-11-29 08:00:00,
2013-11-28 22:10:00,68.0,60.2,29.93,ESE,106,5.0,9.0,76,0.00,FEW,SCT,0.00,0.0,WeatherDisplay:10.37,2013-11-29 08:10:00,
2013-11-28 22:20:00,68.1,60.7,29.93,ESE,102,5.0,13.0,77,0.00,FEW,SCT,0.00,0.0,WeatherDisplay:10.37,2013-11-29 08:20:00,
2013-11-28 22:30:00,68.1,61.3,29.93,East,93,7.0,13.0,79,0.00,FEW,SCT,0.00,0.0,WeatherDisplay:10.37,2013-11-29 08:30:00,
2013-11-28 22:40:00,67.9,61.1,29.92,East,94,3.0,7.0,79,0.00,FEW,SCT,0.00,0.0,WeatherDisplay:10.37,2013-11-29 08:40:00,
2013-11-28 22:50:00,67.1,59.7,29.92,ESE,117,3.0,8.0,77,0.00,FEW,SCT,0.00,0.0,WeatherDisplay:10.37,2013-11-29 08:50:00,
2013-11-28 23:00:00,66.7,60.0,29.92,East,94,3.0,6.0,79,0.00,FEW,SCT,0.00,0.0,WeatherDisplay:10.37,2013-11-29 09:00:00,
2013-11-28 23:10:00,66.5,59.8,29.92,East,92,3.0,7.0,79,0.00,FEW,SCT,0.00,0.0,WeatherDisplay:10.37,2013-11-29 09:10:00,
2013-11-28 23:20:00,66.5,59.8,29.92,East,94,0.0,5.0,79,0.00,FEW,SCT,0.00,0.0,WeatherDisplay:10.37,2013-11-29 09:20:00,
2013-11-28 23:30:00,66.1,59.7,29.92,East,96,0.0,4.0,80,0.00,FEW,SCT,0.00,0.0,WeatherDisplay:10.37,2013-11-29 09:30:00,
2013-11-28 23:40:00,65.4,59.5,29.92,East,96,2.0,5.0,81,0.00,FEW,SCT,0.00,0.0,WeatherDisplay:10.37,2013-11-29 09:40:00,
2013-11-28 23:50:00,64.9,59.6,29.91,East,95,0.0,5.0,83,0.00,FEW,SCT,0.00,0.0,WeatherDisplay:10.37,2013-11-29 09:50:00,